Location: Newark
(50.0336°N, 22.0047°E)
Time: 07:25:03
(UTC+00:00)

N. Korean satellite - Pass Details

Date: 29 January 2020
Orbit: 456 x 505 km, 97.2° (Epoch: 20 February)

Event Time Altitude Azimuth Distance (km) Brightness Sun altitude
Rises 16:12:06 0° 197° (SSW) 2,463 10.7 -8.5°
Reaches altitude 10° 16:14:26 10° 212° (SSW) 1,598 10.0 -8.9°
Maximum altitude 16:17:11 22° 266° (W) 1,042 9.3 -9.3°
Drops below altitude 10° 16:19:59 10° 320° (NW) 1,620 9.5 -9.8°
Sets 16:22:22 0° 336° (NNW) 2,509 10.3 -10.1°
